| time (UTC) | temp F | wind direction | speed knots | gust knots | rain 1hr in | rain 24hr in | rain mn in | humidity % | barometer mb |
| 20260902131017 | 74 | 358 | 0.0 | 0.9 | 0.00 | 0.00 | 0.00 | 88 | 1019.1 |
| 20260902130017 | 73 | 313 | 0.0 | 0.9 | 0.00 | 0.00 | 0.00 | 89 | 1019.1 |
| 20260902125017 | 73 | 322 | 0.0 | 0.9 | 0.00 | 0.00 | 0.00 | 89 | 1019.1 |
| 20260902124038 | 72 | 327 | 0.0 | 0.9 | 0.00 | 0.00 | 0.00 | 90 | 1019.1 |
| 20260902123018 | 72 | 2 | 0.0 | 0.9 | 0.00 | 0.00 | 0.00 | 90 | 1019.0 |
| 20260902122018 | 71 | 335 | 0.0 | 0.0 | 0.00 | 0.00 | 0.00 | 90 | 1018.9 |
| 20260902121018 | 71 | 43 | 0.0 | 0.9 | 0.00 | 0.00 | 0.00 | 90 | 1018.8 |
| 20260902120018 | 71 | 55 | 0.0 | 0.9 | 0.00 | 0.00 | 0.00 | 90 | 1018.7 |
| 20260902115018 | 70 | 123 | 0.0 | 0.9 | 0.00 | 0.00 | 0.00 | 90 | 1018.5 |
| 20260902114018 | 70 | 82 | 0.0 | 0.9 | 0.00 | 0.00 | 0.00 | 90 | 1018.5 |
| 20260902113018 | 70 | 322 | 0.0 | 0.9 | 0.00 | 0.00 | 0.00 | 90 | 1018.4 |
| 20260902112019 | 70 | 304 | 0.0 | 0.9 | 0.00 | 0.00 | 0.00 | 90 | 1018.3 |
| 20260902111019 | 70 | 59 | 0.0 | 0.9 | 0.00 | 0.00 | 0.00 | 90 | 1018.3 |
| 20260902110019 | 71 | 28 | 0.9 | 1.7 | 0.00 | 0.00 | 0.00 | 90 | 1018.2 |
| 20260902105019 | 71 | 102 | 0.0 | 0.9 | 0.00 | 0.00 | 0.00 | 90 | 1018.1 |
| 20260902104039 | 71 | 100 | 0.0 | 0.9 | 0.00 | 0.00 | 0.00 | 90 | 1018.1 |
| 20260902103019 | 71 | 105 | 0.0 | 0.9 | 0.00 | 0.00 | 0.00 | 89 | 1018.0 |
| 20260902102040 | 71 | 46 | 0.0 | 0.9 | 0.00 | 0.00 | 0.00 | 89 | 1017.9 |
| 20260902101020 | 71 | 79 | 0.0 | 0.9 | 0.00 | 0.00 | 0.00 | 89 | 1017.8 |
| 20260902100021 | 71 | 32 | 0.0 | 0.0 | 0.00 | 0.00 | 0.00 | 89 | 1017.7 |
| 20260902095020 | 71 | 56 | 0.0 | 0.9 | 0.00 | 0.00 | 0.00 | 89 | 1017.6 |
| 20260902094020 | 71 | 60 | 0.0 | 0.9 | 0.00 | 0.00 | 0.00 | 89 | 1017.5 |
| 20260902093021 | 71 | 93 | 0.0 | 0.9 | 0.00 | 0.00 | 0.00 | 89 | 1017.4 |
| 20260902092021 | 71 | 313 | 0.0 | 0.9 | 0.00 | 0.00 | 0.00 | 89 | 1017.4 |
| 20260902091021 | 71 | 326 | 0.0 | 0.9 | 0.00 | 0.00 | 0.00 | 89 | 1017.3 |
| 20260902090021 | 71 | 332 | 0.0 | 0.0 | 0.00 | 0.00 | 0.00 | 88 | 1017.2 |
| 20260902085021 | 72 | 92 | 0.0 | 0.9 | 0.00 | 0.00 | 0.00 | 88 | 1017.2 |
| 20260902084021 | 72 | 18 | 0.0 | 0.9 | 0.00 | 0.00 | 0.00 | 88 | 1017.1 |
| 20260902083021 | 72 | 114 | 0.0 | 0.9 | 0.00 | 0.00 | 0.00 | 88 | 1017.1 |
| 20260902082021 | 72 | 360 | 0.0 | 0.9 | 0.00 | 0.00 | 0.00 | 88 | 1017.0 |
| 20260902081022 | 72 | 107 | 0.0 | 0.0 | 0.00 | 0.00 | 0.00 | 88 | 1017.0 |
| 20260902080022 | 72 | 114 | 0.0 | 0.9 | 0.00 | 0.00 | 0.00 | 88 | 1016.9 |
| 20260902075022 | 72 | 111 | 0.0 | 0.9 | 0.00 | 0.00 | 0.00 | 88 | 1016.9 |
| 20260902074022 | 73 | 0.0 | 0.0 | 0.00 | 0.00 | 0.00 | 87 | 1016.9 | |
| 20260902073022 | 73 | 352 | 0.0 | 0.0 | 0.00 | 0.00 | 0.00 | 87 | 1017.0 |
| 20260902072023 | 73 | 40 | 0.0 | 0.9 | 0.00 | 0.00 | 0.00 | 87 | 1017.0 |
| 20260902071023 | 73 | 85 | 0.0 | 0.9 | 0.00 | 0.00 | 0.00 | 87 | 1017.0 |
| 20260902070023 | 73 | 225 | 0.0 | 0.9 | 0.00 | 0.00 | 0.00 | 87 | 1017.0 |
| 20260902065023 | 73 | 107 | 0.0 | 0.0 | 0.00 | 0.00 | 0.00 | 87 | 1016.9 |
| 20260902064023 | 74 | 32 | 0.0 | 0.0 | 0.00 | 0.00 | 0.00 | 86 | 1017.0 |
| 20260902063024 | 74 | 338 | 0.0 | 0.0 | 0.00 | 0.00 | 0.00 | 86 | 1017.0 |
| 20260902062024 | 74 | 190 | 0.0 | 0.9 | 0.00 | 0.00 | 0.00 | 86 | 1017.0 |
| 20260902061043 | 74 | 98 | 0.0 | 0.9 | 0.00 | 0.00 | 0.00 | 86 | 1017.1 |
| 20260902060024 | 74 | 37 | 0.0 | 0.9 | 0.00 | 0.00 | 0.00 | 86 | 1017.1 |
| 20260902055024 | 74 | 26 | 0.0 | 0.9 | 0.00 | 0.00 | 0.00 | 86 | 1017.1 |
| 20260902054024 | 74 | 0.0 | 0.0 | 0.00 | 0.00 | 0.00 | 85 | 1017.1 | |
| 20260902053024 | 75 | 24 | 0.0 | 0.9 | 0.00 | 0.00 | 0.00 | 85 | 1017.1 |
| 20260902052045 | 75 | 99 | 0.0 | 0.9 | 0.00 | 0.00 | 0.00 | 85 | 1017.0 |
| 20260902051024 | 75 | 352 | 0.0 | 0.0 | 0.00 | 0.00 | 0.00 | 85 | 1017.0 |
| 20260902050045 | 75 | 0.0 | 0.0 | 0.00 | 0.00 | 0.00 | 84 | 1017.1 | |
| 20260902045025 | 75 | 1 | 0.0 | 0.0 | 0.00 | 0.00 | 0.00 | 84 | 1017.1 |
| 20260902044025 | 75 | 86 | 0.0 | 0.9 | 0.00 | 0.00 | 0.00 | 83 | 1017.1 |
| 20260902043025 | 75 | 95 | 0.0 | 0.9 | 0.00 | 0.00 | 0.00 | 83 | 1017.2 |
| 20260902042025 | 76 | 113 | 0.0 | 0.0 | 0.00 | 0.00 | 0.00 | 82 | 1017.2 |
| 20260902041025 | 76 | 314 | 0.0 | 0.9 | 0.00 | 0.00 | 0.00 | 82 | 1017.3 |
| 20260902040026 | 76 | 48 | 0.0 | 0.9 | 0.00 | 0.00 | 0.00 | 82 | 1017.2 |
| 20260902035026 | 76 | 0.0 | 0.0 | 0.00 | 0.00 | 0.00 | 82 | 1017.2 | |
| 20260902034026 | 76 | 356 | 0.0 | 0.0 | 0.00 | 0.00 | 0.00 | 82 | 1017.2 |
| 20260902033026 | 77 | 46 | 0.0 | 0.0 | 0.00 | 0.00 | 0.00 | 81 | 1017.3 |
| 20260902032026 | 77 | 347 | 0.0 | 0.9 | 0.00 | 0.00 | 0.00 | 81 | 1017.3 |
| 20260902031027 | 77 | 357 | 0.0 | 0.0 | 0.00 | 0.00 | 0.00 | 81 | 1017.4 |
| 20260902030027 | 77 | 37 | 0.0 | 0.0 | 0.00 | 0.00 | 0.00 | 81 | 1017.4 |
| 20260902025027 | 78 | 51 | 0.0 | 0.9 | 0.00 | 0.00 | 0.00 | 80 | 1017.5 |
| 20260902024027 | 78 | 6 | 0.0 | 0.0 | 0.00 | 0.00 | 0.00 | 79 | 1017.5 |
| 20260902023047 | 78 | 81 | 0.0 | 0.9 | 0.00 | 0.00 | 0.00 | 79 | 1017.4 |
| 20260902022019 | 78 | 75 | 0.0 | 0.9 | 0.00 | 0.00 | 0.00 | 78 | 1017.3 |
| 20260902021019 | 79 | 43 | 0.0 | 0.9 | 0.00 | 0.00 | 0.00 | 77 | 1017.3 |
| 20260902020016 | 79 | 62 | 0.0 | 0.9 | 0.00 | 0.00 | 0.00 | 77 | 1017.2 |
| 20260902015039 | 79 | 108 | 0.0 | 0.9 | 0.00 | 0.00 | 0.00 | 77 | 1017.2 |
| 20260902014020 | 80 | 6 | 0.0 | 0.9 | 0.00 | 0.00 | 0.00 | 76 | 1017.1 |
| 20260902013019 | 80 | 324 | 0.0 | 0.9 | 0.00 | 0.00 | 0.00 | 75 | 1017.0 |
| 20260902012019 | 81 | 36 | 0.0 | 0.0 | 0.00 | 0.00 | 0.00 | 74 | 1016.9 |
| 20260902011017 | 82 | 78 | 0.0 | 0.9 | 0.00 | 0.00 | 0.00 | 73 | 1016.8 |
| 20260902010017 | 82 | 52 | 0.0 | 0.9 | 0.00 | 0.00 | 0.00 | 73 | 1016.7 |
| 20260902005017 | 83 | 43 | 0.0 | 0.9 | 0.00 | 0.00 | 0.00 | 72 | 1016.7 |
| 20260902004038 | 84 | 55 | 0.0 | 1.7 | 0.00 | 0.00 | 0.00 | 72 | 1016.7 |
| 20260902003037 | 85 | 98 | 0.0 | 0.9 | 0.00 | 0.00 | 0.00 | 68 | 1016.6 |
| 20260902002017 | 87 | 66 | 0.0 | 0.9 | 0.00 | 0.00 | 0.00 | 67 | 1016.6 |
| 20260902001038 | 90 | 64 | 0.0 | 1.7 | 0.00 | 0.00 | 0.00 | 62 | 1016.6 |
| 20260902000038 | 93 | 99 | 0.9 | 1.7 | 0.00 | 0.00 | 0.00 | 56 | 1016.6 |
| 20260901235038 | 96 | 83 | 0.9 | 1.7 | 0.00 | 0.00 | 0.00 | 49 | 1016.7 |
| 20260901234019 | 96 | 68 | 0.9 | 1.7 | 0.00 | 0.00 | 0.00 | 46 | 1016.7 |
| 20260901233016 | 95 | 55 | 0.9 | 1.7 | 0.00 | 0.00 | 0.00 | 44 | 1016.8 |
| 20260901232019 | 94 | 55 | 0.9 | 1.7 | 0.00 | 0.00 | 0.00 | 45 | 1016.8 |
| 20260901231039 | 95 | 51 | 0.9 | 1.7 | 0.00 | 0.00 | 0.00 | 43 | 1016.7 |
| 20260901230019 | 96 | 134 | 0.9 | 1.7 | 0.00 | 0.00 | 0.00 | 42 | 1016.7 |
| 20260901225019 | 98 | 56 | 0.9 | 2.6 | 0.00 | 0.00 | 0.00 | 40 | 1016.7 |
| 20260901224017 | 100 | 62 | 0.9 | 1.7 | 0.00 | 0.00 | 0.00 | 39 | 1016.6 |
| 20260901223017 | 101 | 137 | 0.9 | 5.2 | 0.00 | 0.00 | 0.00 | 38 | 1016.7 |
| 20260901222017 | 103 | 68 | 1.7 | 4.3 | 0.00 | 0.00 | 0.00 | 38 | 1016.6 |
| 20260901221020 | 101 | 59 | 1.7 | 3.5 | 0.00 | 0.00 | 0.00 | 39 | 1016.7 |
| 20260901220017 | 103 | 67 | 1.7 | 4.3 | 0.00 | 0.00 | 0.00 | 37 | 1016.7 |
| 20260901215038 | 102 | 98 | 1.7 | 3.5 | 0.00 | 0.00 | 0.00 | 38 | 1016.6 |
| 20260901214017 | 101 | 51 | 1.7 | 4.3 | 0.00 | 0.00 | 0.00 | 39 | 1016.7 |
| 20260901213018 | 100 | 66 | 1.7 | 3.5 | 0.00 | 0.00 | 0.00 | 40 | 1016.8 |
| 20260901212018 | 100 | 38 | 1.7 | 3.5 | 0.00 | 0.00 | 0.00 | 40 | 1016.8 |
| 20260901211018 | 99 | 31 | 1.7 | 3.5 | 0.00 | 0.00 | 0.00 | 41 | 1016.9 |
| 20260901210018 | 98 | 88 | 1.7 | 4.3 | 0.00 | 0.00 | 0.00 | 42 | 1016.9 |
| 20260901205018 | 101 | 64 | 1.7 | 5.2 | 0.00 | 0.00 | 0.00 | 40 | 1017.0 |
| 20260901204018 | 100 | 63 | 2.6 | 5.2 | 0.00 | 0.00 | 0.00 | 41 | 1017.1 |
| 20260901203019 | 100 | 98 | 1.7 | 3.5 | 0.00 | 0.00 | 0.00 | 41 | 1017.1 |
| 20260901202019 | 98 | 70 | 1.7 | 4.3 | 0.00 | 0.00 | 0.00 | 42 | 1017.2 |
| 20260901201019 | 98 | 66 | 1.7 | 4.3 | 0.00 | 0.00 | 0.00 | 42 | 1017.3 |
| 20260901200016 | 99 | 38 | 1.7 | 3.5 | 0.00 | 0.00 | 0.00 | 41 | 1017.3 |
| 20260901195016 | 98 | 66 | 1.7 | 3.5 | 0.00 | 0.00 | 0.00 | 42 | 1017.4 |
| 20260901194119 | 96 | 71 | 1.7 | 3.5 | 0.00 | 0.00 | 0.00 | 43 | 1017.5 |
| 20260901193020 | 95 | 252 | 1.7 | 5.2 | 0.00 | 0.00 | 0.00 | 44 | 1017.6 |
| 20260901192019 | 96 | 143 | 1.7 | 3.5 | 0.00 | 0.00 | 0.00 | 44 | 1017.8 |
| 20260901191020 | 95 | 103 | 1.7 | 4.3 | 0.00 | 0.00 | 0.00 | 45 | 1018.0 |
| 20260901190017 | 96 | 220 | 1.7 | 4.3 | 0.00 | 0.00 | 0.00 | 44 | 1018.1 |
| 20260901185017 | 95 | 108 | 1.7 | 4.3 | 0.00 | 0.00 | 0.00 | 44 | 1018.1 |
| 20260901184017 | 95 | 255 | 2.6 | 6.1 | 0.00 | 0.00 | 0.00 | 45 | 1018.1 |
| 20260901183040 | 96 | 60 | 1.7 | 4.3 | 0.00 | 0.00 | 0.00 | 46 | 1018.3 |
| 20260901182038 | 95 | 85 | 1.7 | 4.3 | 0.00 | 0.00 | 0.00 | 46 | 1018.4 |
| 20260901181017 | 94 | 77 | 1.7 | 5.2 | 0.00 | 0.00 | 0.00 | 47 | 1018.4 |
| 20260901180018 | 94 | 157 | 1.7 | 3.5 | 0.00 | 0.00 | 0.00 | 47 | 1018.6 |
| 20260901175018 | 93 | 310 | 1.7 | 6.1 | 0.00 | 0.00 | 0.00 | 47 | 1018.7 |
| 20260901174038 | 91 | 182 | 1.7 | 3.5 | 0.00 | 0.00 | 0.00 | 50 | 1018.8 |
| 20260901173058 | 91 | 339 | 1.7 | 4.3 | 0.00 | 0.00 | 0.00 | 50 | 1018.9 |
| 20260901172018 | 92 | 49 | 0.9 | 5.2 | 0.00 | 0.00 | 0.00 | 50 | 1019.0 |
| 20260901171018 | 92 | 181 | 1.7 | 3.5 | 0.00 | 0.00 | 0.00 | 50 | 1019.1 |
| 20260901170039 | 93 | 31 | 1.7 | 3.5 | 0.00 | 0.00 | 0.00 | 50 | 1019.3 |
| 20260901165019 | 92 | 192 | 1.7 | 3.5 | 0.00 | 0.00 | 0.00 | 49 | 1019.3 |
| 20260901164019 | 91 | 99 | 0.9 | 2.6 | 0.00 | 0.00 | 0.00 | 52 | 1019.5 |
| 20260901163022 | 91 | 265 | 1.7 | 2.6 | 0.00 | 0.00 | 0.00 | 51 | 1019.5 |
| 20260901162022 | 90 | 100 | 0.9 | 2.6 | 0.00 | 0.00 | 0.00 | 53 | 1019.6 |
| 20260901161022 | 90 | 238 | 1.7 | 2.6 | 0.00 | 0.00 | 0.00 | 54 | 1019.7 |
| 20260901160023 | 89 | 204 | 1.7 | 2.6 | 0.00 | 0.00 | 0.00 | 55 | 1019.7 |
| 20260901155023 | 89 | 316 | 1.7 | 2.6 | 0.00 | 0.00 | 0.00 | 55 | 1019.8 |
| 20260901154023 | 88 | 222 | 0.9 | 1.7 | 0.00 | 0.00 | 0.00 | 57 | 1019.8 |
| 20260901153023 | 88 | 324 | 0.9 | 3.5 | 0.00 | 0.00 | 0.00 | 57 | 1019.7 |
| 20260901152023 | 87 | 249 | 0.9 | 2.6 | 0.00 | 0.00 | 0.00 | 59 | 1019.7 |
| 20260901151023 | 87 | 261 | 0.9 | 2.6 | 0.00 | 0.00 | 0.00 | 60 | 1019.7 |
| 20260901150024 | 86 | 236 | 0.9 | 2.6 | 0.00 | 0.00 | 0.00 | 62 | 1019.7 |
| 20260901145023 | 85 | 66 | 0.9 | 2.6 | 0.00 | 0.00 | 0.00 | 63 | 1019.7 |
| 20260901144024 | 85 | 130 | 0.0 | 1.7 | 0.00 | 0.00 | 0.00 | 64 | 1019.7 |
| 20260901143024 | 84 | 302 | 0.9 | 1.7 | 0.00 | 0.00 | 0.00 | 66 | 1019.7 |
| 20260901142024 | 83 | 261 | 0.9 | 2.6 | 0.00 | 0.00 | 0.00 | 68 | 1019.8 |
| 20260901141024 | 82 | 109 | 0.9 | 2.6 | 0.00 | 0.00 | 0.00 | 71 | 1019.7 |
| 20260901140024 | 81 | 182 | 0.9 | 1.7 | 0.00 | 0.00 | 0.00 | 73 | 1019.7 |
| 20260901135044 | 80 | 107 | 0.0 | 0.9 | 0.00 | 0.00 | 0.00 | 75 | 1019.7 |
| 20260901134045 | 79 | 309 | 0.0 | 0.9 | 0.00 | 0.00 | 0.00 | 76 | 1019.7 |
| 20260901133044 | 78 | 72 | 0.9 | 1.7 | 0.00 | 0.00 | 0.00 | 79 | 1019.8 |
| 20260901132025 | 77 | 220 | 0.9 | 1.7 | 0.00 | 0.00 | 0.00 | 79 | 1019.7 |